Weather History for Durango, Mexico

Change the Weather History Date:

Thursday, December 6, 2012

  Actual Average Record
Temperature  
Mean Temperature 60 °F -  
Max Temperature 82 °F 70 °F 82 °F (2012)
Min Temperature 37 °F 31 °F 23 °F (1999)
Degree Days  
Heating Degree Days 6    
Growing Degree Days 10 (Base 50)    
Moisture  
Dew Point 28 °F    
Average Humidity 35    
Maximum Humidity 87    
Minimum Humidity 12    
Precipitation  
Precipitation 0.00 in - - ()
Sea Level Pressure  
Sea Level Pressure 30.06 in    
Wind  
Wind Speed 3 mph ()    
Max Wind Speed 10 mph    
Max Gust Speed -    
Visibility 13.2 miles    
Events      
Averages and records for this station are not official NWS values.
T = Trace of Precipitation, MM = Missing Value Source: Averaged Metar Reports

Daily Weather History Graph

Daily Weather History Graph

Search for Another Location

Airport:

Trip Planner

Search our weather history database for the weather conditions in past years. The results will help you decide how hot, cold, wet, or windy it might be!

Date:

Astronomy

Dec. 06, 2012 Rise Set
Actual Time 7:28 AM CST 6:10 PM CST
Civil Twilight 7:03 AM CST 6:35 PM CST
Nautical Twilight 6:35 AM CST 7:03 PM CST
Astronomical Twilight 6:07 AM CST 7:31 PM CST
Moon 12:29 AM CST (12/6) 12:59 PM CST (12/6)
Length of Visible Light 11h 31m
Length of Day
10h 42m
Waning Gibbous, 49% of the Moon is Illuminated
Dec 6
Waning Gibbous
Dec 13
New
Dec 19
First Quarter
Dec 28
Full
Jan 4
Last Quarter

Hourly Weather History & Observations

Time (CST) Temp. Dew Point Humidity Pressure Visibility Wind Dir Wind Speed Gust Speed Precip Events Conditions
5:57 AM 33.8 °F 28.4 °F 81% 30.01 in 10.0 mi ENE 2.3 mph - N/A   Clear
5:58 AM 42 °F 29 °F 49% 30.02 in 6 mi Calm Calm - -  
6:47 AM 32.0 °F 28.4 °F 87% 30.24 in 10.0 mi Calm Calm - N/A   Clear
7:43 AM 32.0 °F 28.4 °F 87% 30.25 in 14.0 mi NNW 2.3 mph - N/A   Clear
8:49 AM 42.8 °F 32.0 °F 66% 30.13 in 14.0 mi NNW 2.3 mph - N/A   Clear
9:47 AM 51.8 °F 32.0 °F 47% 30.28 in 14.0 mi Calm Calm - N/A   Clear
10:43 AM 60.8 °F 32.0 °F 34% 30.26 in 14.0 mi SW 3.5 mph - N/A   Partly Cloudy
11:40 AM 68 °F 37 °F 21% 30.06 in 19 mi SSW 2.2 mph - -   Clear
11:43 AM 66.2 °F 30.2 °F 26% 29.90 in 14.0 mi South 4.6 mph - N/A   Scattered Clouds
12:41 PM 71.6 °F 26.6 °F 19% 30.19 in 14.0 mi SSE 6.9 mph - N/A   Scattered Clouds
1:42 PM 75.2 °F 23.0 °F 14% 30.13 in 14.0 mi SE 3.5 mph - N/A   Scattered Clouds
2:40 PM 76 °F 37 °F 15% 29.83 in 25 mi SE 2.2 mph - -   Clear
2:49 PM 75.2 °F 21.2 °F 13% 29.86 in 14.0 mi SSW 10.4 mph - N/A   Partly Cloudy
3:42 PM 75.2 °F 21.2 °F 13% 30.07 in 14.0 mi NE 3.5 mph - N/A   Clear
4:41 PM 75.2 °F 21.2 °F 13% 30.06 in 14.0 mi East 4.6 mph - N/A   Partly Cloudy
5:43 PM 73.4 °F 21.2 °F 14% 29.84 in 14.0 mi ESE 5.8 mph - N/A   Partly Cloudy
5:50 PM 72 °F 30 °F 12% 29.70 in 19 mi ESE 2.2 mph - -   Clear
6:41 PM 64.4 °F 26.6 °F 24% 30.07 in 12.0 mi East 3.5 mph - N/A   Partly Cloudy
7:44 PM 60.8 °F 30.2 °F 31% 30.10 in 10.0 mi South 9.2 mph - N/A   Clear
9:50 PM 60.8 °F 30.2 °F 31% 30.14 in 10.0 mi South 9.2 mph - N/A   Clear